Friday Harbor, WA

12:02 PM PDT on June 25, 2017 (GMT -0700)
Friday Harbor

Weather History for KFHR - January, 2014

Change the Weather History Date:

Monday, January 13, 2014

  Actual Average Record
Temperature  
Mean Temperature 48 °F -  
Max Temperature 52 °F 43 °F 53 °F (2004)
Min Temperature 45 °F 35 °F 23 °F (2007)
Degree Days  
Heating Degree Days 16    
Moisture  
Dew Point 45 °F    
Average Humidity 88    
Maximum Humidity 93    
Minimum Humidity 80    
Precipitation  
Precipitation 0.00 in - - ()
Sea Level Pressure  
Sea Level Pressure 30.41 in    
Wind  
Wind Speed 14 mph (SW)    
Max Wind Speed 21 mph    
Max Gust Speed 36 mph    
Visibility 9 miles    
Events Rain    
Averages and records for this station are not official NWS values.
T = Trace of Precipitation, MM = Missing Value Source: NWS Daily Summary

Daily Weather History Graph

Daily Weather History Graph

Search for Another Location

Airport or City:

Trip Planner

Search our weather history database for the weather conditions in past years. The results will help you decide how hot, cold, wet, or windy it might be!

Date:

Astronomy

Jan. 13, 2014 Rise Set
Actual Time 8:00 AM PST 4:41 PM PST
Civil Twilight 7:24 AM PST 5:17 PM PST
Nautical Twilight 6:45 AM PST 5:56 PM PST
Astronomical Twilight 6:07 AM PST 6:34 PM PST
Moon 3:03 PM PST (1/13) 5:51 AM PST (1/13)
Length of Visible Light 9h 53m
Length of Day
8h 41m
Waxing Gibbous, 95% of the Moon is Illuminated
Jan 13
Waxing Gibbous
Jan 15
Full
Jan 23
Last Quarter
Jan 30
New
Feb 6
First Quarter

Hourly Weather History & Observations

Time (PST) Temp. Dew Point Humidity Pressure Visibility Wind Dir Wind Speed Gust Speed Precip Events Conditions
12:53 AM 48.0 °F 45.0 °F 89% 30.23 in 10.0 mi SW 18.4 mph 26.5 mph N/A   Clear
1:53 AM 48.9 °F 45.0 °F 86% 30.25 in 10.0 mi SW 20.7 mph 32.2 mph N/A   Clear
2:25 AM 48.9 °F 46.0 °F 90% 30.28 in 10.0 mi SW 9.2 mph 20.7 mph N/A   Overcast
2:53 AM 48.9 °F 45.0 °F 86% 30.29 in 10.0 mi SW 11.5 mph 18.4 mph N/A   Overcast
3:25 AM 50.0 °F 44.1 °F 80% 30.31 in 10.0 mi SW 10.4 mph 21.9 mph N/A   Overcast
3:53 AM 48.9 °F 44.1 °F 83% 30.32 in 8.0 mi SW 17.3 mph 31.1 mph N/A   Overcast
4:18 AM 48.0 °F 45.0 °F 89% 30.33 in 9.0 mi SW 15.0 mph 25.3 mph 0.00 in   Overcast
4:43 AM 48.9 °F 44.1 °F 83% 30.30 in 10.0 mi SW 17.3 mph 33.4 mph 0.00 in Rain Light Rain
4:53 AM 48.9 °F 44.1 °F 83% 30.30 in 10.0 mi SW 16.1 mph 33.4 mph 0.00 in   Mostly Cloudy
5:53 AM 48.0 °F 45.0 °F 89% 30.32 in 9.0 mi SW 12.7 mph 28.8 mph 0.00 in   Overcast
6:11 AM 48.0 °F 45.0 °F 89% 30.30 in 9.0 mi SW 17.3 mph 33.4 mph N/A   Overcast
6:53 AM 48.9 °F 45.0 °F 86% 30.32 in 10.0 mi SW 20.7 mph 32.2 mph N/A   Mostly Cloudy
7:03 AM 48.9 °F 45.0 °F 86% 30.32 in 10.0 mi SW 20.7 mph 35.7 mph N/A   Overcast
7:26 AM 48.9 °F 46.0 °F 90% 30.34 in 8.0 mi SW 15.0 mph 28.8 mph N/A   Overcast
7:53 AM 48.9 °F 45.0 °F 86% 30.34 in 10.0 mi SW 16.1 mph 23.0 mph N/A   Overcast
8:53 AM 48.9 °F 46.0 °F 90% 30.38 in 4.0 mi SW 12.7 mph 27.6 mph N/A   Overcast
9:04 AM 48.9 °F 46.0 °F 90% 30.39 in 5.0 mi SW 12.7 mph 31.1 mph N/A   Overcast
9:27 AM 48.9 °F 46.9 °F 93% 30.41 in 7.0 mi SSW 13.8 mph 23.0 mph N/A   Overcast
9:53 AM 50.0 °F 46.0 °F 86% 30.43 in 10.0 mi SW 12.7 mph 24.2 mph N/A   Overcast
10:13 AM 50.0 °F 46.0 °F 86% 30.43 in 10.0 mi SW 9.2 mph 23.0 mph N/A   Mostly Cloudy
10:34 AM 50.0 °F 46.0 °F 86% 30.43 in 10.0 mi SW 9.2 mph 24.2 mph N/A   Mostly Cloudy
10:53 AM 50.0 °F 46.0 °F 86% 30.43 in 10.0 mi SSW 13.8 mph 21.9 mph N/A   Scattered Clouds
11:08 AM 50.0 °F 46.9 °F 89% 30.43 in 10.0 mi SSW 12.7 mph 18.4 mph N/A   Mostly Cloudy
11:33 AM 50.0 °F 46.9 °F 89% 30.44 in 10.0 mi SSW 16.1 mph 24.2 mph N/A   Mostly Cloudy
11:53 AM 50.0 °F 46.9 °F 89% 30.44 in 10.0 mi SSW 17.3 mph 27.6 mph N/A   Mostly Cloudy
12:53 PM 52.0 °F 46.9 °F 83% 30.44 in 10.0 mi SW 17.3 mph 28.8 mph N/A   Mostly Cloudy
1:53 PM 51.1 °F 46.0 °F 83% 30.45 in 10.0 mi SW 12.7 mph 25.3 mph N/A   Clear
2:53 PM 50.0 °F 46.0 °F 86% 30.48 in 10.0 mi SW 11.5 mph 21.9 mph N/A   Mostly Cloudy
3:53 PM 50.0 °F 46.0 °F 86% 30.49 in 10.0 mi SW 10.4 mph 21.9 mph N/A   Mostly Cloudy
4:51 PM 48.2 °F 46.4 °F 93% 30.50 in 10.0 mi SSW 9.2 mph 16.1 mph N/A   Partly Cloudy
4:53 PM 48.9 °F 46.0 °F 90% 30.51 in 10.0 mi SW 8.1 mph 16.1 mph N/A   Partly Cloudy
5:53 PM 48.9 °F 46.0 °F 90% 30.51 in 10.0 mi WSW 8.1 mph - N/A   Clear
6:53 PM 48.9 °F 45.0 °F 86% 30.53 in 10.0 mi Variable 5.8 mph - N/A   Clear
7:53 PM 48.0 °F 45.0 °F 89% 30.55 in 10.0 mi South 4.6 mph - N/A   Clear
8:53 PM 48.0 °F 45.0 °F 89% 30.56 in 10.0 mi Calm Calm - N/A   Scattered Clouds
9:53 PM 46.9 °F 44.1 °F 90% 30.58 in 10.0 mi SW 3.5 mph - N/A   Overcast
10:53 PM 45.0 °F 42.1 °F 90% 30.59 in 10.0 mi Calm Calm - N/A   Clear
11:53 PM 45.0 °F 43.0 °F 93% 30.60 in 10.0 mi Calm Calm - N/A   Mostly Cloudy